FW1310 Weather Reports


time (UTC)temp
C
wind
direction
speed
KPH
gust
KPH
rain 1hr
cm
rain 24hr
cm
rain mn
cm
humidity
%
barometer
mb
20260504050005 18 239 3.2 8.0 0.00 0.00 0.00 62 1002.5
20260504045504 18 262 3.2 9.7 0.00 0.00 0.00 61 1002.6
20260504045004 18 253 1.6 4.8 0.00 0.00 0.00 60 1002.5
20260504044504 17 253 3.2 4.8 0.00 0.00 0.00 60 1002.6
20260504043004 18 276 0.0 3.2 0.00 0.00 0.00 58 1002.8
20260504042504 18 268 0.0 4.8 0.00 0.00 0.00 58 1002.7
20260504040504 18 248 1.6 3.2 0.00 0.00 0.00 55 1002.8
20260504040004 18 254 0.0 1.6 0.00 0.00 0.00 56 1002.7
20260504035004 18 267 0.0 0.0 0.00 0.00 0.00 56 1002.7
20260504034505 18 265 0.0 0.0 0.00 0.00 0.00 56 1002.7
20260504034005 18 257 0.0 0.0 0.00 0.00 0.00 55 1002.8
20260504033004 18 262 0.0 0.0 0.00 0.00 0.00 54 1002.9
20260504032504 18 262 0.0 0.0 0.00 0.00 0.00 55 1002.8
20260504032004 18 246 0.0 0.0 0.00 0.00 0.00 54 1002.6
20260504031504 18 258 0.0 0.0 0.00 0.00 0.00 54 1002.8
20260504030504 19 273 0.0 1.6 0.00 0.00 0.00 53 1002.6
20260504030004 19 284 0.0 1.6 0.00 0.00 0.00 52 1002.8
20260504025504 19 334 0.0 3.2 0.00 0.00 0.00 52 1002.8
20260504025005 19 300 0.0 3.2 0.00 0.00 0.00 52 1002.8
20260504024004 19 257 0.0 0.0 0.00 0.00 0.00 52 1002.9
20260504023504 19 260 0.0 0.0 0.00 0.00 0.00 51 1002.9
20260504023005 20 250 0.0 1.6 0.00 0.00 0.00 51 1002.9
20260504022004 20 238 0.0 0.0 0.00 0.00 0.00 51 1002.7
20260504021504 20 262 0.0 0.0 0.00 0.00 0.00 50 1002.8
20260504021004 20 257 0.0 0.0 0.00 0.00 0.00 50 1002.8
20260504020004 20 262 0.0 0.0 0.00 0.00 0.00 48 1002.6
20260504015504 20 242 0.0 0.0 0.00 0.00 0.00 48 1002.6
20260504015005 21 241 0.0 0.0 0.00 0.00 0.00 46 1002.4
20260504014005 21 254 1.6 3.2 0.00 0.00 0.00 45 1002.4
20260504013005 21 230 1.6 4.8 0.00 0.00 0.00 44 1002.1
20260504010504 21 275 1.6 3.2 0.00 0.00 0.00 43 1002.3
20260504010004 22 255 1.6 4.8 0.00 0.00 0.00 43 1002.2
20260504004504 22 232 1.6 9.7 0.00 0.00 0.00 41 1002.2
20260504004004 22 275 3.2 9.7 0.00 0.00 0.00 41 1002.2
20260504003504 22 290 3.2 8.0 0.00 0.00 0.00 40 1002.2
20260504003004 23 189 1.6 8.0 0.00 0.00 0.00 42 1002.4
20260504002504 23 331 1.6 9.7 0.00 0.00 0.00 41 1002.4
20260504002004 23 289 4.8 9.7 0.00 0.00 0.00 40 1002.4
20260504001505 23 258 3.2 9.7 0.00 0.00 0.00 40 1002.4
20260504001005 23 293 1.6 9.7 0.00 0.00 0.00 40 1002.5
20260504000505 23 267 1.6 4.8 0.00 0.00 0.00 40 1002.6
20260503235504 23 259 3.2 9.7 0.00 0.00 0.00 39 1002.8
20260503235004 23 302 3.2 4.8 0.00 0.00 0.00 38 1002.7
20260503234504 24 263 4.8 16.1 0.00 0.00 0.00 38 1002.6
20260503233505 24 234 4.8 12.9 0.00 0.00 0.00 38 1002.9
20260503233005 24 253 6.4 12.9 0.00 0.00 0.00 37 1002.8
20260503232505 24 232 4.8 8.0 0.00 0.00 0.00 38 1002.8
20260503231005 24 240 6.4 11.3 0.00 0.00 0.00 35 1002.8
20260503230505 25 258 4.8 8.0 0.00 0.00 0.00 35 1002.5
20260503230004 25 284 4.8 8.0 0.00 0.00 0.00 35 1002.7
20260503225505 25 251 4.8 11.3 0.00 0.00 0.00 35 1002.8
20260503225005 25 214 6.4 11.3 0.00 0.00 0.00 34 1002.8
20260503224504 26 222 8.0 11.3 0.00 0.00 0.00 33 1002.8
20260503224005 26 266 4.8 11.3 0.00 0.00 0.00 34 1003.0
20260503223504 25 238 6.4 11.3 0.00 0.00 0.00 33 1003.1
20260503222505 26 243 6.4 19.3 0.00 0.00 0.00 34 1003.2
20260503221504 25 247 3.2 9.7 0.00 0.00 0.00 34 1003.2
20260503221004 25 282 8.0 16.1 0.00 0.00 0.00 33 1003.4
20260503220504 26 245 11.3 16.1 0.00 0.00 0.00 33 1003.3
20260503220004 26 248 4.8 14.5 0.00 0.00 0.00 34 1003.5
20260503215504 26 256 3.2 12.9 0.00 0.00 0.00 34 1003.5
20260503215004 26 288 6.4 12.9 0.00 0.00 0.00 35 1003.5
20260503214504 25 284 4.8 9.7 0.00 0.00 0.00 32 1003.7
20260503214004 26 276 3.2 16.1 0.00 0.00 0.00 33 1003.8
20260503212504 26 260 4.8 11.3 0.00 0.00 0.00 33 1004.1
20260503211504 25 238 4.8 19.3 0.00 0.00 0.00 32 1004.2
20260503211005 25 279 6.4 16.1 0.00 0.00 0.00 33 1004.2
20260503210505 25 229 4.8 14.5 0.00 0.00 0.00 33 1004.3
20260503205505 26 267 8.0 12.9 0.00 0.00 0.00 33 1004.5
20260503205004 26 251 8.0 11.3 0.00 0.00 0.00 33 1004.6
20260503204504 26 268 4.8 16.1 0.00 0.00 0.00 34 1004.7
20260503204005 26 286 9.7 19.3 0.00 0.00 0.00 32 1004.7
20260503203504 26 289 3.2 14.5 0.00 0.00 0.00 34 1004.8
20260503203004 26 244 6.4 12.9 0.00 0.00 0.00 36 1004.8
20260503202504 25 254 8.0 11.3 0.00 0.00 0.00 33 1004.9
20260503202005 26 289 6.4 11.3 0.00 0.00 0.00 32 1005.2
20260503201504 26 358 3.2 14.5 0.00 0.00 0.00 34 1005.3
20260503201005 26 307 4.8 20.9 0.00 0.00 0.00 34 1005.2
20260503200505 26 247 9.7 20.9 0.00 0.00 0.00 32 1005.3
20260503200005 26 285 4.8 12.9 0.00 0.00 0.00 33 1005.3
20260503195005 26 236 4.8 14.5 0.00 0.00 0.00 32 1005.5
20260503194504 26 230 6.4 11.3 0.00 0.00 0.00 31 1005.6
20260503194004 26 277 1.6 12.9 0.00 0.00 0.00 29 1005.6
20260503193504 26 274 8.0 12.9 0.00 0.00 0.00 29 1005.6
20260503193004 26 304 6.4 9.7 0.00 0.00 0.00 31 1005.7
20260503192504 26 55 4.8 12.9 0.00 0.00 0.00 30 1005.9
20260503192004 25 3 3.2 9.7 0.00 0.00 0.00 33 1005.8
20260503191504 26 284 8.0 19.3 0.00 0.00 0.00 32 1005.9
20260503191004 26 222 4.8 11.3 0.00 0.00 0.00 33 1006.0
20260503190504 25 267 4.8 12.9 0.00 0.00 0.00 33 1006.0
20260503190004 25 280 3.2 12.9 0.00 0.00 0.00 33 1006.1
20260503185505 25 289 8.0 11.3 0.00 0.00 0.00 32 1006.2
20260503185004 25 253 4.8 11.3 0.00 0.00 0.00 33 1006.3
20260503184504 26 274 4.8 16.1 0.00 0.00 0.00 35 1006.3
20260503183004 25 286 8.0 12.9 0.00 0.00 0.00 34 1006.4
20260503182504 25 260 3.2 8.0 0.00 0.00 0.00 35 1006.6
20260503182006 25 289 3.2 11.3 0.00 0.00 0.00 33 1006.8
20260503181505 25 263 6.4 12.9 0.00 0.00 0.00 33 1006.9
20260503181004 25 241 3.2 14.5 0.00 0.00 0.00 34 1006.9
20260503180004 25 285 8.0 11.3 0.00 0.00 0.00 34 1007.0
20260503175005 25 223 6.4 12.9 0.00 0.00 0.00 36 1007.2
20260503174504 25 292 4.8 11.3 0.00 0.00 0.00 39 1007.2
20260503174004 25 269 3.2 11.3 0.00 0.00 0.00 39 1007.4
20260503173505 25 310 3.2 8.0 0.00 0.00 0.00 40 1007.5
20260503173005 25 312 3.2 11.3 0.00 0.00 0.00 40 1007.4
20260503172504 25 304 4.8 11.3 0.00 0.00 0.00 39 1007.6
20260503172004 25 289 3.2 8.0 0.00 0.00 0.00 38 1007.7
20260503171504 25 270 1.6 11.3 0.00 0.00 0.00 41 1007.8
20260503170504 24 331 1.6 8.0 0.00 0.00 0.00 41 1007.8
20260503151005 22 1 3.2 8.0 0.00 0.00 0.00 48 1008.3
20260503150505 22 282 3.2 8.0 0.00 0.00 0.00 49 1008.1
20260503131004 15 25 0.0 3.2 0.00 0.00 0.00 69 1007.9